Location: Centerville
(32.8776°N, 96.6203°W)
Time: 23:27:31
(UTC+00:00)

CZ-2D R/B - Pass Details

Date: 17 June 2021
Orbit: 791 x 845 km, 98.7° (Epoch: 01 August)

Event Time Altitude Azimuth Distance (km) Brightness Sun altitude
Rises 09:26:18 0° 347° (NNW) 3,295 5.8 -19.4°
Reaches altitude 10° 09:30:15 10° 317° (NW) 2,359 4.6 -18.8°
Maximum altitude 09:32:03 12° 296° (WNW) 2,232 4.2 -18.6°
Enters shadow 09:33:11 11° 283° (WNW) 2,284 4.2 -18.4°
